User: anonymous   Login
Location: Berg
(47.2344°N, 9.5296°E)
Time: 12:55:47
(UTC+00:00)
Language:

Cosmos 2082 Rocket - Orbit

View from above orbital plane
View from above orbital plane
View from above satellite
View from above satellite

Ground track
Ground track

The orbit data is extracted from the following two-line orbital elements,

1 20625U 90046B   21101.68697444  .00000131  00000-0  92734-4 0  9991
2 20625  70.9962 102.2116 0013479 157.2047 202.9676 14.14663071594792
Epoch (UTC): 11 April 2021 16:29:14
Eccentricity: 0.0013479
inclination: 70.9962°
perigee height: 834 km
apogee height: 853 km
right ascension of ascending node: 102.2116°
argument of perigee: 157.2047°
revolutions per day: 14.14663071
mean anomaly at epoch: 202.9676°
orbit number at epoch: 59479

The dashed part of the orbit path shows where the satellite is in the earth's shadow,  

DLR